星链-2512 (STARLINK-2512 )

导读 | 豆包AI

STARLINK-2512是美国SpaceX星链项目中的低轨通信卫星,于2021年4月29日发射升空,是星链星座组网的组成部分。星链是全球规模最大的低轨卫星互联网星座,旨在依托低轨星座为全球提供宽带互联网接入服务。这类卫星运行在约550公里近地轨道,采用相控阵天线技术实现高速通信,相比传统同步卫星时延更低,能支持各类移动和固定场景的网络接入,助力星链完成全球通信覆盖布局。

基本信息
目录编号:
48319
目录名称:
STARLINK-2512
国际标识:
2021-036AV
轨道中心:
EARTH
卫星名称:
星链-2512
卫星全名:
星链-2512 (STARLINK-2512 )
卫星状态:
在轨 (已飞行1780 天)
发射日期:
2021-04-29 UTC
国别 :
美国 (US)
星等 :
--
轨道信息
数据来源 国际轨道数据
星历时间: 2026-03-14T08:00:02+0800
14小时前
查看轨道信息
半长轴: 6853.55km
偏心率: 0.0001194
轨道倾角: 53.158°
近地点辐角 73.269°
升交点赤经 80.976°
平近点角 92.856°
近地点: 474.594km
远地点: 476.232km
周期: 94.109分钟
每日圈数: 15.30134
详细信息
固有亮度:
5
最大亮度:
2.5
卫星平台:
Starlink V1.0
覆盖范围:
全球
运营商:
太空探索技术公司
运营商所在国:
美国
制造商(研发单位):
太空探索技术公司
制造商所在国:
美国
使用方式:
暂无
卫星简介
星链(Starlink)计划是由太空探索技术公司(SpaceX)提出的一个巨型低轨卫星互联网星座项目,计划在2019年至2024年间在太空搭建由约1.2万颗卫星组成的“星链”网络,其中1584颗将部署在地球上空550千米处的近地轨道,并从2020年开始工作。该卫星仍在工作。
2D轨道图
3D轨道图
轨道高度分析图
轨道倾角分析图
轨道综合分析图
查看轨道综合分析图